TimeCDT,TemperatureF,Dew PointF,Humidity,Sea Level PressureIn,VisibilityMPH,Wind Direction,Wind SpeedMPH,Gust SpeedMPH,PrecipitationIn,Events,Conditions,WindDirDegrees,DateUTC
12:53 AM,82.0,66.9,60,30.02,10.0,South,8.1,-,N/A,,Clear,170,2013-08-22 05:53:00
1:53 AM,80.1,68.0,67,30.02,10.0,SSE,8.1,-,N/A,,Clear,150,2013-08-22 06:53:00
2:53 AM,79.0,68.0,69,30.03,10.0,SSE,9.2,-,N/A,,Clear,160,2013-08-22 07:53:00
3:53 AM,78.1,68.0,71,30.03,10.0,SSE,5.8,-,N/A,,Clear,160,2013-08-22 08:53:00
4:53 AM,75.9,69.1,79,30.04,10.0,SE,3.5,-,N/A,,Partly Cloudy,130,2013-08-22 09:53:00
5:53 AM,75.9,69.1,79,30.05,10.0,Calm,Calm,-,N/A,,Partly Cloudy,0,2013-08-22 10:53:00
6:53 AM,73.9,69.1,85,30.06,10.0,Calm,Calm,-,N/A,,Partly Cloudy,0,2013-08-22 11:53:00
7:53 AM,78.1,69.1,74,30.08,10.0,SSE,3.5,-,N/A,,Clear,150,2013-08-22 12:53:00
8:53 AM,82.0,71.1,69,30.09,10.0,SSW,3.5,-,N/A,,Clear,210,2013-08-22 13:53:00
9:53 AM,87.1,71.1,59,30.08,10.0,Variable,3.5,-,N/A,,Partly Cloudy,0,2013-08-22 14:53:00
10:53 AM,88.0,71.1,57,30.07,10.0,SW,3.5,-,N/A,,Scattered Clouds,220,2013-08-22 15:53:00
11:53 AM,89.1,70.0,53,30.06,10.0,Calm,Calm,-,N/A,,Mostly Cloudy,0,2013-08-22 16:53:00
12:53 PM,93.0,66.9,42,30.03,10.0,ESE,5.8,-,N/A,,Scattered Clouds,110,2013-08-22 17:53:00
1:53 PM,95.0,64.9,37,30.00,10.0,Calm,Calm,-,N/A,,Scattered Clouds,0,2013-08-22 18:53:00
2:53 PM,96.1,64.0,35,29.97,10.0,Variable,3.5,-,N/A,,Clear,0,2013-08-22 19:53:00
3:07 PM,96.8,64.4,34,29.99,10.0,ESE,5.8,-,N/A,Thunderstorm,Partly Cloudy,120,2013-08-22 20:07:00
3:30 PM,96.8,66.2,37,29.98,10.0,ENE,13.8,23.0,N/A,Thunderstorm,Thunderstorm,60,2013-08-22 20:30:00
3:53 PM,96.1,66.0,37,29.95,10.0,East,15.0,-,N/A,Thunderstorm,Thunderstorm,80,2013-08-22 20:53:00
4:53 PM,95.0,66.9,40,29.94,10.0,East,8.1,-,N/A,Thunderstorm,Thunderstorm,80,2013-08-22 21:53:00
5:53 PM,91.0,68.0,47,29.93,10.0,ENE,5.8,-,N/A,Thunderstorm,Thunderstorm,60,2013-08-22 22:53:00
6:53 PM,90.0,68.0,48,29.94,10.0,West,3.5,-,N/A,Thunderstorm,Thunderstorm,270,2013-08-22 23:53:00
7:53 PM,86.0,70.0,59,29.95,10.0,Calm,Calm,-,N/A,Thunderstorm,Thunderstorm,0,2013-08-23 00:53:00
8:53 PM,82.9,70.0,65,29.96,10.0,ENE,3.5,-,N/A,Thunderstorm,Thunderstorm,70,2013-08-23 01:53:00
9:53 PM,82.0,70.0,67,29.98,10.0,Calm,Calm,-,N/A,Thunderstorm,Thunderstorm,0,2013-08-23 02:53:00
10:53 PM,82.0,70.0,67,29.99,10.0,SSW,4.6,-,N/A,,Clear,210,2013-08-23 03:53:00
11:53 PM,79.0,70.0,74,29.99,10.0,SSE,3.5,-,N/A,,Clear,150,2013-08-23 04:53:00